Regional Weather Roundup
Issued by NWS

Home | Current Version | Previous Version | Text Only | Print | Product List | Glossary On
Versions: 1 2 3 4 5 6 7 8 9 10 11 12 13 14 15 16 17 18 19 20 21 22 23 24 25 26 27 28 29 30 31 32 33 34 35 36 37 38 39 40 41 42 43 44 45 46 47 48 49 50
000
ASUS43 KLMK 210102
RWRKY
KENTUCKY REGIONAL WEATHER ROUNDUP
NATIONAL WEATHER SERVICE LOUISVILLE KY
800 PM EST MON FEB 20 2017

NOTE "FAIR" INDICATES FEW OR NO CLOUDS BELOW 12,000 FEET
WITH NO SIGNIFICANT WEATHER AND/OR OBSTRUCTIONS TO VISIBILITY.

KYZ001>023-026-027-061>063-070>075-210200-
WESTERN AND SOUTH CENTRAL KENTUCKY

CITY           SKY/WX    TMP DP  RH WIND       PRES   REMARKS
PADUCAH        PTCLDY    64  50  60 SE8       30.00S
HENDERSON      PTCLDY    59  46  63 CALM      30.02S
OWENSBORO      CLOUDY    62  48  60 CALM      30.05R
HOPKINSVILLE   CLOUDY    64  49  56 E3        30.04F
BOWLING GREEN  PTCLDY    61  44  53 CALM      30.06S
GLASGOW        NOT AVBL
$$

KYZ024-025-028>034-038-045-046-053-210200-
NORTH CENTRAL KENTUCKY

CITY           SKY/WX    TMP DP  RH WIND       PRES   REMARKS
LOUISVILLE/SDF MOCLDY    64  42  44 SE8       30.05F
LOUISVILLE/LOU MOCLDY    66  43  43 E3        30.06S
FORT KNOX      CLOUDY    60  45  56 SE5       30.05R
$$

KYZ035>037-039>044-047>052-055>060-089>105-210200-
NORTHEAST KENTUCKY

CITY           SKY/WX    TMP DP  RH WIND       PRES   REMARKS
LEXINGTON      CLOUDY    61  43  51 E3        30.10S
COVINGTON      CLOUDY    57  46  66 E9        30.09F
FRANKFORT      MOCLDY    60  46  59 E5        30.08S
$$

KYZ054-064>069-076>088-106>120-210200-
SOUTHEAST KENTUCKY

CITY           SKY/WX    TMP DP  RH WIND       PRES   REMARKS
JACKSON        CLOUDY    63  35  35 VRB3      30.12F
LONDON         PTCLDY    57  38  48 CALM      30.11S
SOMERSET       NOT AVBL
MIDDLESBORO    CLOUDY    54  43  66 CALM      30.13S
MONTICELLO     PTCLDY    54  43  66 N8        30.12R
$$





USA.gov is the U.S. government's official web portal to all federal, state and local government web resources and services.